{"data":{"norad_id":69390,"intl_designator":"2026-124J","name":"QIANFAN-173","alt_names":[],"object_type":"PAYLOAD","status":"ACTIVE","operator":null,"country":"PRC","launch_date":"2026-06-04","launch_site_code":"TAISC","launch_vehicle":null,"mission":null,"orbit_class":"UNKNOWN","rcs_meters":null,"size_class":null,"mass_kg":null,"dimensions":null,"purposes":[],"wikipedia_slug":null,"has_3d_model":false,"image_url":null,"decayed_at":null,"tle_current":{"epoch":"2026-09-20T04:33:13.968000Z","epoch_age_seconds":61904,"freshness":"FRESH","line1":"1 69390U 26124J   26263.18974500  .00000101  00000+0  13712-3 0  9993","line2":"2 69390  89.0061 352.0215 0001625 103.8207 256.3125 13.51022702 14884","mean_motion":13.51022702,"eccentricity":0.0001625,"inclination_deg":89.0061,"raan_deg":352.0215,"arg_perigee_deg":103.8207,"mean_anomaly_deg":256.3125,"bstar":0.00013712,"rev_number":1488,"period_min":106.58592175159,"perigee_km":1067.2880858427,"apogee_km":1069.7082422711,"semimajor_km":7446.6351640569,"source":"CELESTRAK","updated_at":"2026-09-20T09:00:24.860335Z"}}}